SCP
0 0 0 0 0 0 0 0 0 0 0 0 0 0 0 0 0 0 0 0 0 0 0 0 0 0 0 0 0 0 0 0 0 0 0 0 0 0 0 0 0 0 0
0 0 0 0 0 0 0 0 0 0 0 0 0 0 0 0 0 0 0 0 0 0 0 0 0 0 0 0 0 0 0 0 0 0 0 0 0 0 0 0 0 0 0
0 0 0 0 0 0 0 0 0 0 0 0 0 0 0 0 0 0 0 0 0 0 0 0 0 0 0 0 0 0 0 0 0 0 0 0 0 0 0 0 0 0 0
0 0 0 0 0 0 0 0 0 0 0 0 0 0 0 0 0 0 0 0 0 0 0 0 0 0 0 0 0 0 0 0 0 0 0 0 0 0 0 0 0 0 0
0 0 0 0 0 0 0 0 0 0 0 0 0 0 0 0 0 0 0 0 0 0 0 0 0 0 0 0 0 0 0 0 0 0 0 0 0 0 0 0 0 0 0
0 0 0 0 0 0 0 0 0 0 0 0 0 0 0 0 0 0 0 0 0 0 0 0 0 0 0 0 0 0 0 0 0 0 0 0 0 0 0 0 0 0 0
0 0 0 0 0 0 0 0 0 0 0 0 0 0 0 0 0 0 0 0 0 0 0 0 0 0 0 0 0 0 0 0 0 0 0 0 0 0 0 0 0 0 0
0 0 0 0 0 0 0 0 0 0 0 0 0 0 0 0 0 0 0 0 0 0 0 0 0 0 0 0 0 0 0 0 0 0 0 0 0 0 0 0 0 0 0
0 0 0 0 0 0 0 0 0 0 0 0 0 0 0 0 0 0 0 0 0 0 0 0 0 0 0 0 0 0 0 0 0 0 0 0 0 0 0 0 0 0 0
0 0 0 0 0 0 0 0 0 0 0 0 0 0 0 0 0 0 0 0 0 0 0 0 0 0 0 0 0 0 0 0 0 0 0 0 0 0 0 0 0 0 0
0 0 0 0 0 0 0 0 0 0 0 0 0 0 0 0 0 0 0 0 0 0 0 0 0 0 0 0 0 0 0 0 0 0 0 0 0 0 0 0 0 0 0
0 0 0 0 0 0 0 0 0 0 0 0 0 0 0 0 0 0 0 0 0 0 0 0 0 0 0 0 0 0 0 0 0 0 0 0 0 0 0 0 0 0 0
0 0 0 0 0 0 0 0 0 0 0 0 0 0 0 0 0 0 0 0 0 0 0 0 0 0 0 0 0 0 0 0 0 0 0 0 0 0 0 0 0 0 0
0 0 0 0 0 0 0 -0 0 0 0 0 0 0 0 0 0 0 0 0 0 0 0 0 0 0 0 0 0 0 0 0 0 0 0 0 0 0 0 0 0 0 0
0 0 0 0 0 0 0 -0 -0 0 0 0 0 0 0 0 0 0 0 0 0 0 0 0 0 0 0 0 0 0 0 0 0 0 0 0 0 0 0 0 0 0 0
0 0 0 0 0 0 0 -0 -0 0 0 0 0 0 0 0 0 0 0 0 0 0 0 0 0 0 0 0 0 0 0 0 0 0 0 0 0 0 0 0 0 0 0
0 0 0 0 0 0 -0 -0 -0 0 0 0 0 0 0 0 0 0 0 0 0 0 0 0 0 0 0 0 0 0 0 0 0 0 0 0 0 0 0 0 0 0 0
0 0 0 0 0 -0 0 0 0 0 0 0 0 0 0 0 0 0 0 0 0 0 0 0 0 0 0 0 0 0 0 0 0 0 0 0 0 0 0 0 0 0 0
0 0 0 0 0 -0 0 0 0 -0 0 0 0 0 0 0 0 0 0 0 0 0 0 0 0 0 0 0 0 0 0 0 0 0 0 0 0 0 0 0 0 0 0
0 0 0 0 0 0 0 0 0 0 -0 0 0 0 0 0 0 0 0 0 0 0 0 0 0 0 0 0 0 0 0 0 0 0 0 0 0 0 0 0 0 0 0
0 0 0 0 0 0 0 0 0 0 0 0 0 0 0 0 0 0 0 0 0 0 0 0 0 0 0 0 0 0 0 0 0 0 0 0 0 0 0 0 0 0 0
0 0 0 0 0 0 0 0 0 0 0 0 0 0 0 0 0 0 0 0 0 0 0 0 0 0 0 0 0 0 0 0 0 0 0 0 0 0 0 0 0 0 0
0 0 0 0 0 0 0 0 0 0 0 0 0 0 0 0 0 0 0 0 0 0 0 0 0 0 0 0 0 0 0 0 0 0 0 0 0 0 0 0 0 0 0
0 0 0 0 0 0 0 0 0 0 0 0 0 0 0 0 0 0 0 0 0 0 0 0 0 0 0 0 0 0 0 0 0 0 0 0 0 0 0 0 0 0 0
0 0 0 0 0 0 0 0 0 0 0 0 0 0 0 0 0 0 0 0 0 0 0 0 0 0 0 0 0 0 0 0 0 0 0 0 0 0 0 0 0 0 0
0 0 0 0 0 0 0 0 0 0 0 0 0 0 0 0 0 0 0 0 0 0 0 0 0 0 0 0 0 0 0 0 0 0 0 0 0 0 0 0 0 0 0
Wind_Speed
12 12 14 14 14 14 16 17 18 19 18 19 19 20 20 20 19 18 19 17 13 10 10 12 13 12 13 14 13 16 13 13 15 7 3 8 14 17 16 12 15 18 17
12 14 16 16 16 17 18 18 19 19 18 19 19 19 19 19 20 19 20 19 14 12 10 12 14 11 16 15 15 15 14 12 18 17 7 8 10 19 17 14 11 9 12
13 15 17 17 18 18 19 19 19 20 19 19 19 19 19 19 20 19 18 19 17 13 11 12 14 11 15 13 17 16 12 9 15 18 14 7 6 10 14 9 8 6 7
14 16 17 18 19 20 20 20 20 19 19 19 19 19 19 19 20 19 18 18 18 15 13 12 14 11 14 13 15 16 12 12 15 17 17 14 9 10 15 15 10 5 5
15 17 17 19 19 20 20 20 20 19 19 19 19 19 19 18 17 18 17 17 17 16 14 13 14 13 16 15 12 17 18 15 16 14 17 12 11 16 17 12 12 8 4
15 17 18 19 20 20 20 20 20 19 19 19 19 19 19 16 23 28 24 17 17 17 16 14 12 12 14 17 16 22 24 21 19 15 12 17 16 16 10 13 12 10 7
15 16 17 19 20 20 21 20 20 19 19 19 19 19 19 21 28 29 29 21 18 17 16 13 10 9 11 11 16 25 26 28 27 21 20 21 20 19 17 18 14 12 7
15 15 17 19 20 21 21 21 20 19 18 18 19 19 20 21 28 29 28 22 19 18 17 15 13 12 10 11 13 20 22 25 26 23 24 23 22 22 21 16 14 10 7
16 17 18 19 20 21 21 22 20 19 19 18 18 18 19 21 27 29 28 16 15 17 17 16 15 14 17 18 13 18 20 19 21 22 23 23 28 29 23 16 16 14 8
17 19 19 18 18 20 21 21 19 18 18 19 19 18 18 18 24 28 27 14 14 14 14 14 16 16 20 20 15 18 21 18 15 12 14 20 23 26 30 24 21 18 10
17 18 18 17 18 18 18 18 18 18 19 18 19 17 17 17 21 26 28 16 13 13 13 11 11 21 25 25 21 16 20 18 17 16 14 14 14 16 18 16 17 19 13
17 18 18 17 15 14 17 17 16 17 17 16 16 17 14 15 17 18 23 26 23 16 14 10 9 18 23 26 21 18 25 23 15 15 15 15 16 15 15 14 13 12 12
16 16 16 16 14 14 15 17 15 13 13 14 14 15 15 13 16 21 20 21 25 19 13 16 17 20 21 20 23 24 23 17 15 16 16 16 15 14 14 12 10 8 7
14 15 15 14 15 14 13 13 13 12 13 14 15 15 15 14 14 14 14 14 16 17 15 14 21 26 22 15 16 21 17 16 15 16 14 12 12 13 14 13 10 10 7
12 13 14 13 13 13 13 13 15 12 16 17 14 15 16 17 19 31 24 16 13 12 10 9 10 11 13 13 13 15 15 15 15 13 13 12 12 14 13 11 10 10 11
11 11 11 11 12 13 14 14 18 20 26 27 27 25 18 24 32 33 34 29 26 25 15 10 12 13 13 13 14 15 15 15 15 14 14 15 16 16 14 12 12 11 13
8 9 10 11 12 13 13 15 16 18 23 26 30 32 31 32 33 35 34 25 16 10 11 10 11 12 11 11 12 14 14 13 13 13 14 15 15 15 15 15 15 13 11
7 8 9 9 10 11 12 13 13 15 17 16 21 30 34 34 33 36 35 24 17 17 10 7 4 5 7 9 10 10 11 12 13 13 13 14 15 15 16 17 16 15 14
6 6 7 8 9 10 11 12 12 14 14 15 16 20 28 30 29 34 30 19 16 15 13 12 11 9 6 2 5 8 10 12 13 12 12 14 14 15 14 15 15 16 13
5 9 9 7 8 9 10 12 12 13 14 14 15 18 19 19 17 20 19 17 16 15 15 14 12 12 11 10 6 3 9 11 13 13 14 14 15 16 16 17 16 16 15
4 6 9 7 7 8 9 11 11 12 13 13 13 19 29 15 16 18 17 17 16 16 15 15 14 13 13 12 11 9 1 6 10 12 12 13 15 14 14 15 14 15 13
3 4 4 5 6 8 9 10 11 11 13 14 13 15 25 16 14 15 15 16 15 15 15 15 14 14 13 13 12 12 10 8 3 4 9 11 12 13 13 13 13 13 14
4 4 4 5 6 8 8 9 10 11 12 13 13 14 14 14 14 15 15 15 15 16 15 15 15 17 15 13 13 13 12 10 9 7 3 8 9 10 9 10 13 14 14
4 4 5 5 6 7 8 8 9 11 12 12 12 12 13 13 13 15 14 14 14 15 15 15 17 23 28 20 15 14 15 15 12 10 10 6 5 5 6 8 10 12 13
4 4 4 4 5 5 6 7 8 10 10 11 11 12 12 13 13 14 14 14 15 15 18 18 16 19 25 28 25 21 24 27 23 15 13 12 13 12 9 7 5 4 5
3 3 3 3 4 4 5 6 7 9 9 9 10 11 12 12 12 13 13 14 15 14 16 15 21 23 25 22 27 30 29 29 27 25 16 14 15 14 13 11 13 11 11
Wind_Direction
310 308 306 304 304 302 300 296 294 292 291 291 291 289 289 289 290 287 290 280 258 254 258 262 257 260 266 230 186 171 166 157 154 135 124 152 157 164 167 166 166 171 174
312 311 309 309 310 306 300 297 296 295 294 292 290 288 288 288 286 282 285 286 267 258 263 269 260 261 272 227 186 173 169 159 154 151 144 150 156 167 163 160 159 167 170
315 313 312 312 310 306 302 302 300 298 296 292 289 286 285 285 283 279 278 285 279 268 268 275 271 271 279 230 186 174 166 153 153 155 153 146 138 156 152 141 139 141 152
317 315 314 313 310 307 305 304 302 300 297 293 289 286 284 283 281 278 276 281 283 277 272 274 272 266 283 237 185 169 155 149 152 156 158 158 150 155 159 158 152 144 151
318 315 313 312 311 308 307 307 305 302 299 295 291 286 283 280 277 276 275 275 279 278 272 266 269 263 290 258 195 169 162 159 159 155 160 158 158 166 169 164 159 143 131
315 314 315 313 312 312 312 311 310 307 304 298 292 287 282 277 276 277 275 274 274 274 272 266 267 267 287 266 205 174 168 163 163 160 165 169 168 166 154 162 154 156 162
316 314 313 315 315 316 316 315 311 308 302 297 291 286 282 278 277 275 273 270 268 268 269 267 268 264 288 267 202 177 171 168 164 164 167 175 170 167 161 165 167 160 151
317 315 318 320 317 317 317 314 310 307 304 298 292 285 280 276 276 274 272 267 263 261 261 262 263 261 267 271 211 183 176 174 173 169 172 174 169 165 166 160 149 124 89
320 320 322 321 318 316 315 313 313 311 307 301 293 284 275 271 271 271 268 264 259 260 259 255 251 253 257 261 230 188 177 179 179 175 169 167 165 164 160 149 152 151 139
322 320 320 319 314 312 312 314 313 311 307 306 301 295 286 273 267 266 262 256 256 258 257 249 240 239 247 250 230 192 178 173 163 158 158 158 160 162 163 165 166 166 149
320 318 318 314 309 310 314 315 314 314 312 309 306 305 302 292 278 267 258 247 248 252 250 243 236 237 239 241 230 204 179 159 160 156 153 156 159 166 173 175 175 171 162
322 319 314 310 312 319 318 316 319 319 316 316 316 314 313 314 303 284 266 250 242 243 246 241 235 240 238 233 221 194 166 156 160 162 164 169 173 175 178 178 177 176 172
320 314 310 314 322 326 323 323 325 324 324 323 323 322 321 322 317 313 298 278 255 242 243 242 244 249 244 228 209 179 166 166 165 171 176 179 178 171 167 168 168 169 146
315 315 320 326 329 333 329 327 327 331 330 328 330 326 324 323 320 322 318 304 280 255 245 241 245 249 246 223 191 176 175 177 175 178 176 169 164 166 172 169 169 167 153
317 322 326 329 331 332 334 330 331 337 336 338 333 331 331 325 321 322 317 301 282 259 239 226 228 232 226 208 190 183 180 178 178 175 169 163 166 171 175 171 166 168 182
326 330 332 334 334 334 333 331 338 348 349 352 346 346 339 333 333 333 327 310 285 260 244 225 220 222 215 199 187 182 181 183 182 177 174 170 171 174 172 173 176 177 184
320 330 335 337 336 337 337 336 336 342 353 358 352 353 357 352 352 351 348 344 352 304 242 226 217 215 209 194 185 181 182 180 177 179 178 174 172 173 173 176 182 184 186
323 335 342 336 335 336 337 336 337 340 343 348 348 353 3 1 3 7 8 14 19 22 8 345 297 236 203 189 182 177 174 172 176 179 176 172 172 174 176 180 184 186 187
342 346 342 335 335 335 338 338 340 342 345 345 346 352 5 2 7 14 17 19 18 14 10 6 0 352 342 287 179 169 169 173 174 174 173 171 173 175 179 181 185 186 183
347 356 355 341 339 342 346 346 347 348 349 351 353 351 359 1 7 10 13 14 13 11 8 6 6 7 4 356 341 182 169 171 173 175 175 175 176 181 182 181 184 186 192
349 349 351 350 348 347 348 348 348 349 351 351 350 351 9 6 7 6 9 10 9 7 6 7 9 13 13 8 2 354 345 173 175 176 176 176 178 181 184 183 185 187 190
359 356 356 350 348 348 349 348 348 349 351 352 347 351 1 7 7 7 6 5 4 5 6 10 12 14 18 17 14 11 12 15 11 186 179 177 178 180 179 181 181 185 188
12 10 10 0 352 347 351 352 352 351 350 351 350 352 356 0 2 3 3 2 2 5 6 12 17 18 18 22 24 22 18 9 354 336 199 171 174 179 177 178 180 182 186
23 19 19 8 0 357 354 352 352 351 349 349 350 352 354 355 357 358 359 359 2 6 8 12 20 22 22 24 25 26 24 19 11 9 26 79 117 150 168 178 182 187 187
34 21 20 15 6 355 350 351 352 349 348 349 349 349 350 352 354 355 355 357 360 6 10 13 16 22 25 26 29 30 31 31 30 29 34 47 56 60 67 73 88 111 142
38 20 12 9 7 358 354 350 348 346 345 345 346 346 347 349 350 352 352 356 357 0 5 9 10 20 29 28 28 31 34 37 35 36 39 45 49 50 56 62 65 66 69